Time,TemperatureF,DewpointF,PressureIn,WindDirection,WindDirectionDegrees,WindSpeedMPH,WindSpeedGustMPH,Humidity,HourlyPrecipIn,Conditions,Clouds,dailyrainin,SoftwareType,DateUTC
2013-07-19 00:22:00,78.0,-99.9,-100.00,North,-999,-999.0,-999.0,-999,0.00,,,-99.99,,2013-07-19 06:22:00,
2013-07-19 00:33:00,78.0,-99.9,-100.00,North,-999,-999.0,-999.0,-999,0.00,,,-99.99,,2013-07-19 06:33:00,
2013-07-19 00:44:00,78.0,-99.9,-100.00,North,-999,-999.0,-999.0,-999,0.00,,,-99.99,,2013-07-19 06:44:00,
2013-07-19 01:22:00,74.0,-99.9,-100.00,North,-999,-999.0,-999.0,-999,0.00,,,-99.99,,2013-07-19 07:22:00,
2013-07-19 01:33:00,74.0,-99.9,-100.00,North,-999,-999.0,-999.0,-999,0.00,,,-99.99,,2013-07-19 07:33:00,
2013-07-19 01:43:00,74.0,-99.9,-100.00,North,-999,-999.0,-999.0,-999,0.00,,,-99.99,,2013-07-19 07:43:00,
2013-07-19 02:22:00,71.0,-99.9,-100.00,North,-999,-999.0,-999.0,-999,0.00,,,-99.99,,2013-07-19 08:22:00,
2013-07-19 02:33:00,71.0,-99.9,-100.00,North,-999,-999.0,-999.0,-999,0.00,,,-99.99,,2013-07-19 08:33:00,
2013-07-19 02:43:00,71.0,-99.9,-100.00,North,-999,-999.0,-999.0,-999,0.00,,,-99.99,,2013-07-19 08:43:00,
2013-07-19 03:22:00,68.0,-99.9,-100.00,North,-999,-999.0,-999.0,-999,0.00,,,-99.99,,2013-07-19 09:22:00,
2013-07-19 03:32:00,68.0,-99.9,-100.00,North,-999,-999.0,-999.0,-999,0.00,,,-99.99,,2013-07-19 09:32:00,
2013-07-19 03:43:00,68.0,-99.9,-100.00,North,-999,-999.0,-999.0,-999,0.00,,,-99.99,,2013-07-19 09:43:00,
2013-07-19 04:22:00,70.0,-99.9,-100.00,North,-999,-999.0,-999.0,-999,0.02,,,-99.99,,2013-07-19 10:22:00,
2013-07-19 04:33:00,70.0,-99.9,-100.00,North,-999,-999.0,-999.0,-999,0.02,,,-99.99,,2013-07-19 10:33:00,
2013-07-19 04:43:00,70.0,-99.9,-100.00,North,-999,-999.0,-999.0,-999,0.02,,,-99.99,,2013-07-19 10:43:00,
2013-07-19 05:22:00,70.0,-99.9,-100.00,North,-999,-999.0,-999.0,-999,0.00,,,0.02,,2013-07-19 11:22:00,
2013-07-19 05:33:00,70.0,-99.9,-100.00,North,-999,-999.0,-999.0,-999,0.00,,,0.02,,2013-07-19 11:33:00,
2013-07-19 05:43:00,70.0,-99.9,-100.00,North,-999,-999.0,-999.0,-999,0.00,,,0.02,,2013-07-19 11:43:00,
2013-07-19 06:22:00,68.0,-99.9,-100.00,North,-999,-999.0,-999.0,-999,0.00,,,0.02,,2013-07-19 12:22:00,
2013-07-19 06:33:00,68.0,-99.9,-100.00,North,-999,-999.0,-999.0,-999,0.00,,,0.02,,2013-07-19 12:33:00,
2013-07-19 06:44:00,68.0,-99.9,-100.00,North,-999,-999.0,-999.0,-999,0.00,,,0.02,,2013-07-19 12:44:00,
2013-07-19 07:32:00,65.0,-99.9,-100.00,North,-999,-999.0,-999.0,-999,0.10,,,0.12,,2013-07-19 13:32:00,
2013-07-19 07:43:00,65.0,-99.9,-100.00,North,-999,-999.0,-999.0,-999,0.10,,,0.12,,2013-07-19 13:43:00,
2013-07-19 08:33:00,64.0,-99.9,-100.00,North,-999,-999.0,-999.0,-999,0.02,,,0.14,,2013-07-19 14:33:00,
2013-07-19 08:43:00,64.0,-99.9,-100.00,North,-999,-999.0,-999.0,-999,0.02,,,0.14,,2013-07-19 14:43:00,
2013-07-19 09:23:00,66.0,-99.9,-100.00,North,-999,-999.0,-999.0,-999,0.00,,,0.14,,2013-07-19 15:23:00,
2013-07-19 09:32:00,66.0,-99.9,-100.00,North,-999,-999.0,-999.0,-999,0.00,,,0.14,,2013-07-19 15:32:00,
2013-07-19 09:43:00,66.0,-99.9,-100.00,North,-999,-999.0,-999.0,-999,0.00,,,0.14,,2013-07-19 15:43:00,
2013-07-19 10:22:00,65.0,-99.9,-100.00,North,-999,-999.0,-999.0,-999,0.00,,,0.14,,2013-07-19 16:22:00,
2013-07-19 10:32:00,65.0,-99.9,-100.00,North,-999,-999.0,-999.0,-999,0.00,,,0.14,,2013-07-19 16:32:00,
2013-07-19 10:43:00,65.0,-99.9,-100.00,North,-999,-999.0,-999.0,-999,0.00,,,0.14,,2013-07-19 16:43:00,
2013-07-19 11:23:00,67.0,-99.9,-100.00,North,-999,-999.0,-999.0,-999,0.00,,,0.14,,2013-07-19 17:23:00,
2013-07-19 11:32:00,67.0,-99.9,-100.00,North,-999,-999.0,-999.0,-999,0.00,,,0.14,,2013-07-19 17:32:00,
2013-07-19 11:43:00,67.0,-99.9,-100.00,North,-999,-999.0,-999.0,-999,0.00,,,0.14,,2013-07-19 17:43:00,
2013-07-19 12:32:00,74.0,-99.9,-100.00,North,-999,-999.0,-999.0,-999,0.01,,,0.15,,2013-07-19 18:32:00,
2013-07-19 12:43:00,74.0,-99.9,-100.00,North,-999,-999.0,-999.0,-999,0.01,,,0.15,,2013-07-19 18:43:00,
2013-07-19 13:22:00,77.0,-99.9,-100.00,North,-999,-999.0,-999.0,-999,0.00,,,0.15,,2013-07-19 19:22:00,
2013-07-19 13:32:00,77.0,-99.9,-100.00,North,-999,-999.0,-999.0,-999,0.00,,,0.15,,2013-07-19 19:32:00,
2013-07-19 13:43:00,77.0,-99.9,-100.00,North,-999,-999.0,-999.0,-999,0.00,,,0.15,,2013-07-19 19:43:00,
2013-07-19 14:23:00,81.0,-99.9,-100.00,North,-999,-999.0,-999.0,-999,0.00,,,0.15,,2013-07-19 20:23:00,
2013-07-19 14:33:00,81.0,-99.9,-100.00,North,-999,-999.0,-999.0,-999,0.00,,,0.15,,2013-07-19 20:33:00,
2013-07-19 14:43:00,81.0,-99.9,-100.00,North,-999,-999.0,-999.0,-999,0.00,,,0.15,,2013-07-19 20:43:00,
2013-07-19 15:22:00,84.0,-99.9,-100.00,North,-999,-999.0,-999.0,-999,0.00,,,0.15,,2013-07-19 21:22:00,
2013-07-19 15:32:00,84.0,-99.9,-100.00,North,-999,-999.0,-999.0,-999,0.00,,,0.15,,2013-07-19 21:32:00,
2013-07-19 15:43:00,84.0,-99.9,-100.00,North,-999,-999.0,-999.0,-999,0.00,,,0.15,,2013-07-19 21:43:00,
2013-07-19 16:22:00,86.0,-99.9,-100.00,North,-999,-999.0,-999.0,-999,0.00,,,0.15,,2013-07-19 22:22:00,
2013-07-19 16:32:00,86.0,-99.9,-100.00,North,-999,-999.0,-999.0,-999,0.00,,,0.15,,2013-07-19 22:32:00,
2013-07-19 16:43:00,86.0,-99.9,-100.00,North,-999,-999.0,-999.0,-999,0.00,,,0.15,,2013-07-19 22:43:00,
2013-07-19 17:22:00,86.0,-99.9,-100.00,North,-999,-999.0,-999.0,-999,0.00,,,0.15,,2013-07-19 23:22:00,
2013-07-19 17:33:00,86.0,-99.9,-100.00,North,-999,-999.0,-999.0,-999,0.00,,,0.15,,2013-07-19 23:33:00,
2013-07-19 17:43:00,86.0,-99.9,-100.00,North,-999,-999.0,-999.0,-999,0.00,,,0.15,,2013-07-19 23:43:00,
2013-07-19 18:22:00,86.0,-99.9,-100.00,North,-999,-999.0,-999.0,-999,0.00,,,0.15,,2013-07-20 00:22:00,
2013-07-19 18:32:00,86.0,-99.9,-100.00,North,-999,-999.0,-999.0,-999,0.00,,,0.15,,2013-07-20 00:32:00,
2013-07-19 18:43:00,86.0,-99.9,-100.00,North,-999,-999.0,-999.0,-999,0.00,,,0.15,,2013-07-20 00:43:00,
2013-07-19 20:22:00,79.0,-99.9,-100.00,North,-999,-999.0,-999.0,-999,-99.99,,,0.15,,2013-07-20 02:22:00,
2013-07-19 20:33:00,79.0,-99.9,-100.00,North,-999,-999.0,-999.0,-999,-99.99,,,0.15,,2013-07-20 02:33:00,
2013-07-19 20:44:00,79.0,-99.9,-100.00,North,-999,-999.0,-999.0,-999,-99.99,,,0.15,,2013-07-20 02:44:00,
2013-07-19 22:22:00,70.0,-99.9,-100.00,North,-999,-999.0,-999.0,-999,0.00,,,0.15,,2013-07-20 04:22:00,
2013-07-19 22:33:00,70.0,-99.9,-100.00,North,-999,-999.0,-999.0,-999,0.00,,,0.15,,2013-07-20 04:33:00,
2013-07-19 22:44:00,70.0,-99.9,-100.00,North,-999,-999.0,-999.0,-999,0.00,,,0.15,,2013-07-20 04:44:00,
2013-07-19 23:22:00,74.0,-99.9,-100.00,North,-999,-999.0,-999.0,-999,0.00,,,0.15,,2013-07-20 05:22:00,
2013-07-19 23:32:00,74.0,-99.9,-100.00,North,-999,-999.0,-999.0,-999,0.00,,,0.15,,2013-07-20 05:32:00,